[[{"header":{"parameterUnit":"m.s-1","parameterCategory":1,"la1":30.2991,"la2":30.254,"lo1":-89.0895,"lo2":-89.0444,"dy":0.0017,"dx":0.0017,"nx":28,"ny":28,"refTime":"2024-03-17T03:00:00:Z","depth":0,"parameterNumber":2,"parameterNumberName":"U-component_of_WINDS"},"data":[0,0,0,0,0,0,0,0,0,0,0,0,0,0,0,0,0,0,0,0,0,0,0,0,0,0,0,0,0,0,0,0,0,0,0,0,0,0,0,0,0,0,0,0,0,0,0,0,0,0,0,0,0,0,0,0,0,0,0.8863,0.8862,0,0.8851,0.8851,0.8851,0.8857,0.8857,0.8857,0.8858,0.8843,0.8842,0.8842,0,0,0,0,0,0,0,0,0,0,0,0,0,0.8889,0.8889,0.8863,0.8862,0.8862,0.8851,0.8851,0.8851,0.8857,0.8857,0.8857,0.8858,0.8843,0.8843,0.8842,0,0,0,0,0,0,0,0,0,0,0,0,0,0.8877,0.8888,0.8863,0.8864,0.8864,0.8851,0.8851,0.8851,0.8856,0.8857,0.8857,0.8858,0.8844,0.8843,0.8842,0.8826,0,0,0.8839,0.8838,0,0,0,0,0,0,0,0,0.8878,0.8876,0.8864,0.8864,0.8864,0.8856,0.8855,0.8842,0.8856,0.8859,0.8858,0.8858,0.8847,0.8846,0.8842,0.8825,0.8825,0.8838,0.8838,0.8837,0.8837,0,0,0,0,0,0,0,0.8879,0.8877,0.8858,0.8864,0.8864,0.8865,0.8864,0.8852,0.885,0.8859,0.8859,0.8858,0.8847,0.8843,0.8842,0.8824,0.8838,0.8838,0.8837,0.8837,0.8795,0.8795,0,0,0,0,0,0,0.888,0.8878,0.8858,0.8858,0.8872,0.8864,0.8863,0.8858,0.8851,0.885,0.8858,0.8858,0.8845,0.8843,0.8841,0.8823,0.8837,0.8836,0.8836,0.8796,0.8795,0.8795,0,0,0,0,0,0,0.888,0.8878,0.8859,0.8868,0.8865,0.8863,0.8857,0.8857,0.8854,0.885,0.8849,0.8854,0.8845,0.8843,0.883,0.8823,0.8836,0.8835,0.8796,0.8796,0.8795,0.8786,0,0,0,0,0,0,0.8881,0.8878,0.8872,0.8868,0.8865,0.8848,0.8857,0.8857,0.8852,0.8853,0.8846,0.8846,0.8845,0.8832,0.8829,0.8822,0.8834,0.8797,0.8796,0.8795,0.8787,0.8786,0.8784,0,0,0,0,0,0.8882,0.8869,0.8872,0.8869,0.8857,0.8847,0.8846,0.8846,0.8852,0.8846,0.8843,0.8846,0.8824,0.883,0.8828,0.882,0.8797,0.8796,0.8795,0.8788,0.8786,0.8784,0,0,0,0,0,0,0.8872,0.8869,0.8871,0.8857,0.8853,0.8848,0.8841,0.8844,0.8837,0.8838,0.8838,0.8836,0.8823,0.882,0.8827,0.8805,0.8812,0.881,0.8807,0.8805,0.8803,0.8804,0.8833,0,0,0,0,0,0.8868,0.8861,0.8858,0.8846,0.8844,0.8843,0.8838,0.8839,0.8834,0.8832,0.8829,0.8823,0.8816,0.881,0.8803,0.8787,0.8786,0.8781,0.8779,0.8778,0.8776,0.8769,0.8766,0.8791,0.8791,0.8791,0,0,0.886,0.8857,0.8852,0.8844,0.884,0.8833,0.8841,0.8832,0.8826,0.883,0.8819,0.8816,0.881,0.8797,0.879,0.8794,0.8769,0.8776,0.8775,0.8774,0.8767,0.8765,0.8763,0.879,0.8791,0.8791,0,0,0.8841,0.8838,0.8828,0.8825,0.8821,0.8821,0.8818,0.8814,0.8813,0.8802,0.8805,0.8798,0.8784,0.8781,0.8777,0.8759,0.8761,0.8756,0.8747,0.874,0.8738,0.8737,0.8731,0.8728,0.8755,0.8755,0.8755,0,0.8831,0.882,0.8822,0.8814,0.881,0.8815,0.8805,0.8802,0.8795,0.8792,0.8796,0.878,0.8777,0.8763,0.8759,0.8755,0.8753,0.8757,0.8739,0.8737,0.8735,0.8729,0.8727,0.8754,0.8754,0.8755,0.8755,0,0.8808,0.88,0.8793,0.8787,0.8783,0.8773,0.8775,0.877,0.8772,0.8771,0.876,0.8756,0.8749,0.8746,0.8747,0.8732,0.8735,0.8739,0.8745,0.8732,0.8727,0.8725,0.8754,0.8754,0.8754,0.8754,0,0,0.878,0.8778,0.8775,0.8774,0.877,0.8764,0.8756,0.8749,0.8746,0.8741,0.8734,0.8723,0.8728,0.8723,0.8724,0.8718,0.8705,0.8723,0.8723,0.872,0.869,0.8687,0.8684,0.8708,0.8707,0.8707,0.8691,0,0.8761,0.8747,0.875,0.8736,0.8729,0.8735,0.8728,0.8725,0.8725,0.8719,0.8719,0.8711,0.8717,0.8715,0.8709,0.8708,0.8699,0.8709,0.87,0.87,0.8701,0.8681,0.8677,0.8662,0.8688,0.8688,0.8688,0,0.8737,0.8733,0.8719,0.8718,0.8715,0.8708,0.8704,0.8698,0.8696,0.8696,0.8693,0.8695,0.8687,0.8695,0.8683,0.869,0.8687,0.8686,0.8686,0.8684,0.8693,0.8679,0.8657,0.8655,0.8684,0.8685,0.8685,0,0.8719,0.871,0.87,0.8699,0.8697,0.8693,0.8692,0.869,0.8686,0.8682,0.868,0.8675,0.8672,0.8668,0.8669,0.8675,0.8658,0.8666,0.8658,0.8658,0.8653,0.8653,0.863,0.8652,0.8652,0.8652,0.8652,0,0.8697,0.8688,0.8693,0.8686,0.8677,0.8681,0.8671,0.8671,0.8669,0.8663,0.8668,0.8663,0.8665,0.866,0.8661,0.8652,0.865,0.865,0.865,0.865,0.865,0.8647,0.8648,0.8651,0.8651,0.8651,0.8651,0,0.8674,0.8677,0.8667,0.8668,0.8668,0.8661,0.8661,0.8655,0.8657,0.8649,0.8648,0.8649,0.8643,0.8645,0.8638,0.8639,0.8627,0.8629,0.8628,0.8629,0.8621,0.8622,0.8595,0.8592,0.8616,0.8615,0.8615,0,0.866,0.8653,0.8654,0.8651,0.865,0.8645,0.8642,0.8646,0.8643,0.8641,0.8636,0.8631,0.8627,0.8617,0.8617,0.8612,0.8614,0.8605,0.8613,0.8613,0.8614,0.8614,0.8614,0.8603,0.8603,0.8603,0.8602,0,0.8634,0.8637,0.8633,0.863,0.8627,0.8625,0.8623,0.862,0.8624,0.862,0.8615,0.8612,0.8606,0.8601,0.8597,0.8596,0.86,0.86,0.8598,0.8597,0.8597,0.8597,0.8624,0.86,0.8601,0.8601,0.8601,0.8601,0.8616,0.8611,0.8611,0.8607,0.8606,0.8605,0.86,0.8601,0.8597,0.8594,0.8596,0.859,0.8589,0.8585,0.8583,0.8579,0.8582,0.8579,0.8578,0.8577,0.8576,0.8598,0.8578,0.8578,0.8578,0.8578,0.8578,0,0.859,0.8591,0.8588,0.8586,0.8583,0.8588,0.8587,0.8584,0.8579,0.8578,0.8575,0.8569,0.8565,0.8566,0.8562,0.8558,0.856,0.8557,0.8557,0.8557,0.8573,0.8576,0.8556,0.8556,0.8556,0.8556,0.8556,0.8556,0.8577,0.8569,0.8572,0.8564,0.8565,0.856,0.8559,0.8558,0.8557,0.8551,0.8548,0.8549,0.8549,0.8546,0.8542,0.8543,0.8541,0.8537,0.8538,0.8553,0.8555,0.8558,0.856,0.8537,0.8537,0.8522,0.8522,0.8522]},{"header":{"parameterUnit":"m.s-1","parameterCategory":1,"la1":30.2991,"la2":30.254,"lo1":-89.0895,"lo2":-89.0444,"dy":0.0017,"dx":0.0017,"nx":28,"ny":28,"refTime":"2024-03-17T03:00:00:Z","depth":0,"parameterNumber":3,"parameterNumberName":"V-component_of_WINDS"},"data":[0,0,0,0,0,0,0,0,0,0,0,0,0,0,0,0,0,0,0,0,0,0,0,0,0,0,0,0,0,0,0,0,0,0,0,0,0,0,0,0,0,0,0,0,0,0,0,0,0,0,0,0,0,0,0,0,0,0,-6.3168,-6.3169,0,-6.3223,-6.3223,-6.3224,-6.3158,-6.3156,-6.3153,-6.3151,-6.3203,-6.3206,-6.321,0,0,0,0,0,0,0,0,0,0,0,0,0,-6.3006,-6.3009,-6.3168,-6.3169,-6.317,-6.3223,-6.3223,-6.3224,-6.3158,-6.3155,-6.3153,-6.315,-6.3202,-6.3206,-6.321,0,0,0,0,0,0,0,0,0,0,0,0,0,-6.307,-6.301,-6.3168,-6.3143,-6.3142,-6.3222,-6.3223,-6.3224,-6.3159,-6.3155,-6.3152,-6.3148,-6.32,-6.3205,-6.3211,-6.3317,0,0,-6.3227,-6.323,0,0,0,0,0,0,0,0,-6.3066,-6.3076,-6.3146,-6.3145,-6.3144,-6.318,-6.3185,-6.3255,-6.316,-6.3152,-6.3151,-6.3147,-6.3198,-6.3203,-6.3221,-6.332,-6.3322,-6.3228,-6.3231,-6.3234,-6.3235,0,0,0,0,0,0,0,-6.3062,-6.3073,-6.319,-6.3147,-6.3146,-6.3129,-6.3134,-6.3198,-6.3195,-6.3153,-6.3148,-6.3156,-6.3196,-6.3216,-6.3222,-6.3323,-6.3228,-6.3233,-6.3236,-6.3238,-6.3514,-6.3518,0,0,0,0,0,0,-6.3061,-6.307,-6.3188,-6.3191,-6.3095,-6.3135,-6.3141,-6.3172,-6.3194,-6.3194,-6.3159,-6.3152,-6.3209,-6.3216,-6.3224,-6.3352,-6.3234,-6.3239,-6.3242,-6.351,-6.3515,-6.3519,0,0,0,0,0,0,-6.3058,-6.3072,-6.3186,-6.313,-6.3143,-6.3142,-6.3177,-6.3175,-6.3195,-6.3198,-6.3197,-6.318,-6.3206,-6.3216,-6.3295,-6.3352,-6.3241,-6.3246,-6.3505,-6.3512,-6.3517,-6.3607,0,0,0,0,0,0,-6.3053,-6.3071,-6.3112,-6.3131,-6.3146,-6.3257,-6.3181,-6.3179,-6.3205,-6.3197,-6.3218,-6.3218,-6.3204,-6.3288,-6.3301,-6.3358,-6.325,-6.35,-6.3508,-6.3515,-6.3599,-6.3616,-6.363,0,0,0,0,0,-6.3048,-6.3134,-6.3114,-6.3129,-6.3197,-6.3261,-6.3269,-6.3253,-6.321,-6.325,-6.3253,-6.3217,-6.3344,-6.3296,-6.3311,-6.337,-6.3496,-6.3506,-6.3515,-6.3592,-6.3613,-6.363,0,0,0,0,0,0,-6.3119,-6.3136,-6.3114,-6.3209,-6.3235,-6.325,-6.33,-6.3274,-6.3311,-6.3302,-6.3279,-6.3284,-6.3369,-6.3377,-6.3324,-6.3476,-6.3413,-6.3425,-6.3467,-6.3486,-6.3502,-6.3498,-6.3255,0,0,0,0,0,-6.3146,-6.3198,-6.3209,-6.3291,-6.3306,-6.3301,-6.3328,-6.3314,-6.3338,-6.3348,-6.3356,-6.3381,-6.3427,-6.3457,-6.3499,-6.36,-6.3605,-6.3649,-6.3664,-6.3676,-6.3687,-6.3744,-6.3764,-6.3549,-6.3549,-6.3549,0,0,-6.3202,-6.3218,-6.3251,-6.3306,-6.3324,-6.3378,-6.331,-6.3369,-6.3409,-6.3356,-6.3433,-6.3441,-6.3466,-6.3558,-6.3599,-6.3567,-6.3748,-6.3688,-6.3698,-6.3702,-6.3755,-6.3776,-6.3794,-6.3555,-6.3554,-6.3553,0,0,-6.3331,-6.3348,-6.342,-6.344,-6.3469,-6.3466,-6.3484,-6.3504,-6.3507,-6.3584,-6.3547,-6.3593,-6.3672,-6.3692,-6.3713,-6.3855,-6.3823,-6.3869,-6.3948,-6.4004,-6.4021,-6.4036,-6.4087,-6.4106,-6.388,-6.388,-6.388,0,-6.3397,-6.3477,-6.346,-6.3523,-6.3549,-6.3506,-6.3579,-6.3599,-6.364,-6.3659,-6.3623,-6.3723,-6.3737,-6.3834,-6.3869,-6.3887,-6.3907,-6.3866,-6.402,-6.4035,-6.4048,-6.4097,-6.4117,-6.3885,-6.3885,-6.3884,-6.3884,0,-6.3557,-6.3613,-6.3668,-6.3711,-6.3743,-6.381,-6.3803,-6.3838,-6.3821,-6.3822,-6.3902,-6.3918,-6.3964,-6.3986,-6.3969,-6.4081,-6.4061,-6.4024,-6.396,-6.4075,-6.412,-6.4139,-6.3893,-6.3891,-6.3889,-6.3888,0,0,-6.373,-6.3766,-6.3786,-6.3806,-6.3837,-6.388,-6.3946,-6.3992,-6.4023,-6.4053,-6.4108,-6.4178,-6.4144,-6.4168,-6.4153,-6.4202,-6.4315,-6.4158,-6.4158,-6.4187,-6.4441,-6.447,-6.4492,-6.4294,-6.4298,-6.4301,-6.444,0,-6.3861,-6.3978,-6.3966,-6.4076,-6.4129,-6.4091,-6.4149,-6.4174,-6.4177,-6.4222,-6.4225,-6.4275,-6.4226,-6.424,-6.4287,-6.4291,-6.4365,-6.4281,-6.4346,-6.4348,-6.4341,-6.4516,-6.4546,-6.4677,-6.4457,-6.446,-6.4463,0,-6.4029,-6.4068,-6.4185,-6.421,-6.4231,-6.4284,-6.4327,-6.437,-6.4398,-6.4397,-6.4426,-6.4404,-6.4471,-6.4407,-6.4499,-6.4442,-6.4467,-6.4474,-6.4479,-6.4484,-6.4412,-6.4527,-6.4717,-6.4738,-6.449,-6.4488,-6.4486,0,-6.4146,-6.4227,-6.4308,-6.4327,-6.4357,-6.4395,-6.441,-6.4434,-6.4464,-6.4502,-6.4521,-6.4565,-6.4589,-6.4624,-6.4615,-6.4569,-6.471,-6.4644,-6.4711,-6.4712,-6.4742,-6.474,-6.494,-6.4758,-6.4758,-6.4757,-6.4757,0,-6.4294,-6.4367,-6.4362,-6.4412,-6.4493,-6.4479,-6.4559,-6.4568,-6.4591,-6.4642,-6.4612,-6.466,-6.4644,-6.4692,-6.4685,-6.4764,-6.4774,-6.4776,-6.4773,-6.4779,-6.4779,-6.4795,-6.4786,-6.4763,-6.4762,-6.4761,-6.476,0,-6.4438,-6.4437,-6.4523,-6.4547,-6.4554,-6.4614,-6.4633,-6.468,-6.4682,-6.4747,-6.4762,-6.4765,-6.4819,-6.4814,-6.4874,-6.487,-6.4968,-6.4953,-6.4959,-6.4956,-6.5024,-6.5018,-6.5242,-6.5271,-6.5069,-6.5071,-6.5073,0,-6.4532,-6.4588,-6.4619,-6.4652,-6.467,-6.4723,-6.4754,-6.4742,-6.4776,-6.4814,-6.4857,-6.491,-6.4951,-6.504,-6.5047,-6.5094,-6.5082,-6.5157,-6.5088,-6.5093,-6.5084,-6.5081,-6.5088,-6.517,-6.5173,-6.5174,-6.5176,0,-6.47,-6.4698,-6.4745,-6.4794,-6.4833,-6.4869,-6.4902,-6.4931,-6.4923,-6.4963,-6.502,-6.5052,-6.5116,-6.5169,-6.5214,-6.5228,-6.5201,-6.5198,-6.5216,-6.5223,-6.5224,-6.5226,-6.4997,-6.5193,-6.5191,-6.519,-6.5189,-6.5188,-6.4823,-6.4872,-6.4903,-6.4957,-6.4981,-6.5014,-6.5061,-6.507,-6.5118,-6.517,-6.516,-6.5225,-6.5253,-6.5311,-6.533,-6.538,-6.5353,-6.5379,-6.5386,-6.5392,-6.5401,-6.5216,-6.5388,-6.5388,-6.5387,-6.5387,-6.5387,0,-6.4991,-6.501,-6.506,-6.5109,-6.5152,-6.5126,-6.5162,-6.5199,-6.5257,-6.5287,-6.533,-6.5396,-6.5448,-6.5461,-6.551,-6.5548,-6.5538,-6.5562,-6.5559,-6.5563,-6.5422,-6.5402,-6.557,-6.557,-6.557,-6.557,-6.557,-6.557,-6.5084,-6.5166,-6.5168,-6.5263,-6.528,-6.5345,-6.5368,-6.5399,-6.5423,-6.5499,-6.5543,-6.5552,-6.5575,-6.5627,-6.5674,-6.5676,-6.5696,-6.5726,-6.5723,-6.5591,-6.5573,-6.5555,-6.5536,-6.573,-6.573,-6.586,-6.5862,-6.5863]}]]